• Join FlightAware (Why Join?)
  • Login
  • US Flag GB Flag 
13:18 EST


 

Airport Tracker/Info


-or-


 

Live Flight TrackerFlight Track Log ✈ SWA1496 ✈ 13-Apr-2013 ✈ KIND - KBWI

Flight Track Log - Related Links

Times and Time Zones

All times are in EDT time to prevent confusion due to time zone crossing. See the SWA1496 flight status page for this flight to view local times or setup timezone preferences in your user account.

Time Position Orientation Groundspeed Altitude Reporting Facility
EDT Latitude Longitude Course Direction KTS MPH feet Rate Location/Type
06:54 39.7167 -86.3167 218° Southwest 148 170 1,900  Level Indianapolis TRACON
06:55 39.6833 -86.3500 218° Southwest 193 222 4,100 3,882 Climbing Indianapolis TRACON
06:56 39.6333 -86.3833 207° Southwest 250 288 8,500 3,763 Climbing Indianapolis TRACON
06:57 39.5769 -86.3342 146° Southeast 349 402 11,500 3,000 Climbing Indianapolis Center
06:58 39.6100 -86.2014 72° East 399 459 14,400 3,273 Climbing Indianapolis Center
06:59 39.6572 -86.0539 67° East 435 501 18,100 3,492 Climbing Indianapolis Center
07:00 39.7061 -85.8733 71° East 465 535 21,500 3,174 Climbing Indianapolis Center
07:01 39.7544 -85.7031 70° East 493 567 24,500 2,727 Climbing Indianapolis Center
07:02 39.8044 -85.5250 70° East 513 590 27,000 2,281 Climbing Indianapolis Center
07:03 39.8242 -85.3300 82° East 538 619 29,100 2,281 Climbing Indianapolis Center
07:04 39.8372 -85.1292 85° East 550 633 31,600 2,361 Climbing Indianapolis Center
07:05 39.8483 -84.9300 86° East 549 632 33,900 2,380 Climbing Indianapolis Center
07:06 39.8606 -84.7317 85° East 547 629 36,400 2,182 Climbing Indianapolis Center
07:07 39.8711 -84.5350 86° East 541 623 38,300 1,721 Climbing Indianapolis Center
07:08 39.8819 -84.3414 86° East 535 616 39,900 1,328 Climbing Indianapolis Center
07:09 39.8928 -84.1494 86° East 528 608 41,000 545 Climbing Indianapolis Center
07:10 39.9025 -83.9578 86° East 526 605 41,000  Level Indianapolis Center
07:11 39.9111 -83.7650 87° East 528 608 41,000  Level Indianapolis Center
07:12 39.9192 -83.5794 87° East 526 605 41,000  Level Indianapolis Center
07:13 39.9297 -83.3858 86° East 532 612 41,000  Level Indianapolis Center
07:14 39.9381 -83.1731 87° East 531 611 41,000  Level Indianapolis Center
07:15 39.9469 -82.9786 87° East 532 612 41,000  Level Indianapolis Center
07:16 39.9539 -82.8164 87° East 533 613 41,000  Level Indianapolis Center
07:17 39.9628 -82.5894 87° East 532 612 41,000  Level Indianapolis Center
07:18 39.9703 -82.3944 87° East 534 615 41,000  Level Indianapolis Center
07:19 39.9767 -82.1997 87° East 533 613 41,000  Level Indianapolis Center
07:20 39.9828 -82.0036 88° East 536 617 41,000  Level Indianapolis Center
07:21 39.9894 -81.8103 87° East 532 612 41,000  Level Indianapolis Center
07:22 39.9933 -81.6242 88° East 531 611 41,000  Level Indianapolis Center
07:23 39.9692 -81.4367 99° East 523 602 41,000  Level Indianapolis Center
07:24 39.9500 -81.2689 98° East 525 604 41,000  Level Indianapolis Center
07:25 39.9256 -81.0808 100° East 524 603 41,000  Level Indianapolis Center
07:26 39.9000 -80.8403 98° East 519 597 41,000 -378 Level Cleveland Center
07:27 39.8753 -80.6508 100° East 524 603 40,200 -900 Descending Cleveland Center
07:28 39.8503 -80.4667 100° East 519 597 39,200 -950 Descending Cleveland Center
07:29 39.8269 -80.2750 99° East 524 603 38,300 -950 Descending Cleveland Center
07:30 39.8014 -80.0858 100° East 524 603 37,300 -950 Descending Cleveland Center
07:31 39.7753 -79.8969 100° East 529 609 36,400 -1,100 Descending Cleveland Center
07:32 39.7511 -79.7217 100° East 540 621 35,100 -750 Descending Cleveland Center
07:33 39.7247 -79.5358 100° East 540 621 34,900 -500 Descending Cleveland Center
07:34 39.7125 -79.4436 100° East 527 606 34,400 -2,357 Descending Washington Center
07:35 39.6906 -79.2806 100° East 520 598 31,600 -2,850 Descending Washington Center
07:36 39.6650 -79.0958 100° East 520 598 28,700 -3,150 Descending Washington Center
07:37 39.6164 -78.8969 108° East 515 593 25,300 -2,400 Descending Washington Center
07:38 39.5811 -78.7311 105° East 515 593 23,900 -2,000 Descending Washington Center
07:39 39.5456 -78.5761 107° East 480 552 21,300 -2,200 Descending Washington Center
07:40 39.5136 -78.4294 106° East 450 518 19,500 -2,050 Descending Washington Center
07:41 39.4856 -78.2939 105° East 412 474 17,200 -2,150 Descending Washington Center
07:42 39.4531 -78.1583 107° East 397 457 15,200 -1,100 Descending Washington Center
07:43 39.4244 -78.0311 106° East 384 442 15,000 -250 Descending Washington Center
07:44 39.4147 -77.8856 95° East 384 442 14,700 -550 Descending Washington Center
07:45 39.4214 -77.7569 86° East 394 453 13,900 -1,050 Descending Washington Center
07:46 39.4300 -77.6175 85° East 389 448 12,600 -1,200 Descending Washington Center
07:47 39.4383 -77.4833 85° East 384 442 11,500 -750 Descending Washington Center
07:48 39.4486 -77.3544 84° East 373 429 11,100 -316 Descending Washington Center
07:48 39.4500 -77.3000 88° East 367 422 11,100 -171 Level Potomac TRACON
07:49 39.4667 -77.1833 79° East 368 423 10,900 -737 Descending Potomac TRACON
07:50 39.4833 -77.0667 79° East 342 394 9,700 -1,368 Descending Potomac TRACON
07:51 39.5000 -76.9667 78° East 326 375 8,300 -1,421 Descending Potomac TRACON
07:52 39.5000 -76.8500 90° East 313 360 7,000 -1,150 Descending Potomac TRACON
07:53 39.4667 -76.7500 113° Southeast 312 359 6,000 -789 Descending Potomac TRACON
07:54 39.4333 -76.6500 113° Southeast 311 358 5,500 -947 Descending Potomac TRACON
07:55 39.3667 -76.5833 142° Southeast 292 336 4,200 -750 Descending Potomac TRACON
07:56 39.3167 -76.5333 142° Southeast 285 328 4,000 -100 Descending Potomac TRACON
07:57 39.2500 -76.4833 150° Southeast 248 285 4,000 -350 Level Potomac TRACON
07:58 39.1833 -76.4667 169° South 238 274 3,300 -526 Descending Potomac TRACON
07:59 39.1500 -76.4833 201° Southwest 206 237 3,000 -574 Descending Potomac TRACON
08:00 39.1333 -76.5500 252° West 176 203 2,200 -793 Descending Potomac TRACON
08:01 39.1167 -76.6000 247° West 150 173 1,400 -750 Descending Potomac TRACON
08:02 39.1333 -76.6500 293° West 127 146 700 -700 Descending Potomac TRACON
08:04 39.1754 -76.6683 207° Southwest  Level Estimated